Location: Corralito
(14.1667°N, 87.1833°W)
Time: 09:26:09
(UTC+00:00)

Cosmos 2082 Rocket - Pass Details

Date: 07 June 2020
Orbit: 832 x 854 km, 71.0° (Epoch: 11 July)

Event Time Altitude Azimuth Distance (km) Brightness Sun altitude
Rises 03:20:35 0° 318° (NW) 3,403 6.3 -38.4°
Reaches altitude 10° 03:23:45 10° 300° (WNW) 2,463 5.3 -38.9°
Enters shadow 03:26:28 18° 272° (W) 1,977 4.4 -39.4°
